Theta_e
344 347 354 358 360 356 364 363 357 358 355 351 349 350 353 349 351 350 341 346 346 346 347 348 343 341 347 344 350 351 351 350 347 346 351 350 352 351 352 350 352 353 352 353 352 352 352 352 353
346 355 358 361 360 359 361 357 360 357 351 349 348 348 345 346 340 339 342 349 347 347 346 346 344 342 342 346 349 352 351 345 345 345 350 349 350 352 353 353 352 352 351 352 352 351 351 352 352
354 357 365 366 362 360 363 358 356 350 351 349 349 344 342 342 338 339 346 349 347 346 345 345 344 346 345 348 350 353 352 351 351 347 346 353 351 348 350 350 349 348 350 354 354 353 352 351 351
357 361 361 365 356 354 351 355 354 351 351 346 343 344 339 339 338 344 346 348 351 346 344 346 345 345 350 353 351 353 350 351 348 348 351 353 353 352 347 346 349 344 347 344 351 352 351 350 348
358 350 362 365 355 351 351 354 354 355 352 347 342 340 340 337 343 348 349 349 350 346 344 348 346 345 344 351 351 349 347 347 349 350 353 353 353 352 353 344 347 352 348 348 349 345 345 349 343
348 347 356 351 347 347 351 351 350 349 344 341 341 341 339 340 346 347 346 348 346 343 347 346 344 343 346 349 349 345 349 344 349 351 351 352 351 349 351 349 351 352 351 344 343 343 344 345 340
352 356 357 353 350 351 351 350 351 347 345 343 342 342 338 340 342 346 347 346 342 343 345 345 342 345 347 345 344 344 342 344 343 352 351 350 351 351 351 350 352 351 351 351 346 344 343 343 342
355 357 363 353 352 349 350 349 349 348 349 342 338 341 342 343 344 347 347 346 346 343 342 343 341 344 345 343 342 339 342 342 344 350 346 349 351 350 346 345 349 351 350 349 348 345 342 342 340
350 357 363 351 350 350 349 351 347 344 345 342 341 337 341 344 345 343 346 348 347 341 340 342 343 342 341 341 338 335 337 337 342 348 344 345 342 342 345 339 343 347 350 350 346 341 341 343 341
351 359 360 353 347 347 347 350 348 347 342 342 343 342 343 342 342 342 344 345 347 347 347 346 342 341 342 341 339 338 339 341 342 340 345 348 341 345 342 343 343 341 344 349 343 338 339 340 344
352 358 354 352 352 347 350 350 350 341 341 341 343 342 341 341 340 339 338 343 346 348 348 349 349 348 349 346 340 340 338 340 346 346 347 347 345 347 346 346 345 345 346 342 341 341 336 343 347
355 351 350 350 350 349 348 350 352 347 337 338 339 340 339 340 337 336 340 336 345 346 348 349 349 349 348 351 350 347 347 347 347 349 351 350 350 347 346 348 348 346 346 343 343 342 337 344 346
354 350 353 351 345 345 349 352 348 340 338 341 340 339 338 337 336 334 337 336 344 346 348 349 349 348 348 349 350 350 349 352 351 350 351 351 348 349 350 349 348 346 346 345 346 345 338 342 348
352 350 352 352 350 345 351 350 344 342 341 340 339 337 335 335 334 333 335 339 342 345 346 348 348 347 350 349 350 351 350 349 350 350 350 349 351 352 351 350 348 347 348 348 347 346 342 341 348
349 354 349 355 350 348 344 351 347 340 339 339 337 336 335 334 334 334 335 337 339 344 345 347 346 348 349 346 347 347 350 351 351 350 352 352 351 353 351 351 349 349 349 350 346 343 338 345 346
353 354 355 356 353 346 347 351 344 337 338 337 336 336 335 335 336 337 338 338 340 341 344 343 344 343 343 345 344 342 349 352 351 352 350 349 352 353 352 352 352 350 350 350 347 346 345 347 345
349 348 354 354 352 347 349 351 344 339 338 338 336 333 334 334 335 339 340 339 342 342 344 343 340 341 341 344 347 345 349 351 351 351 349 350 353 354 353 351 352 351 351 351 349 349 346 348 347
353 354 355 355 354 350 350 350 343 342 341 341 340 337 336 336 337 337 338 339 342 344 344 340 343 345 345 348 349 350 351 351 351 352 350 350 354 356 354 352 352 351 351 350 349 348 349 348 348
350 354 354 351 350 355 356 347 344 341 342 342 340 339 338 338 338 338 337 339 341 343 343 340 344 344 346 346 348 351 353 353 352 351 352 350 353 356 356 355 354 352 350 350 352 352 351 351 350
348 353 357 350 348 352 349 349 348 343 341 340 341 340 340 339 338 339 342 344 343 344 342 343 343 347 345 347 350 350 349 351 353 351 352 352 354 357 354 355 354 353 350 352 352 351 352 351 351
345 351 358 354 352 349 351 353 350 349 343 341 341 340 340 341 339 338 344 344 343 342 343 342 348 348 350 352 351 352 353 352 352 352 352 352 356 355 355 353 352 353 352 350 350 351 352 353 352
345 345 353 353 354 361 348 359 355 353 348 343 342 343 342 344 340 338 344 344 343 343 343 343 348 349 352 351 349 352 354 351 350 351 352 354 349 356 358 354 352 354 354 352 350 351 351 351 353
343 349 352 351 350 351 355 350 346 348 348 349 343 343 342 342 342 339 343 344 344 344 343 344 345 347 346 347 350 352 354 353 352 353 353 347 344 354 358 355 353 354 355 356 353 352 352 352 353
343 344 346 351 347 350 350 350 351 345 345 349 346 345 344 343 342 339 342 344 344 345 345 345 345 344 347 349 350 351 354 356 353 353 353 351 353 352 356 357 355 354 352 354 353 353 353 353 352
343 336 345 346 355 355 351 350 352 346 346 348 351 354 349 347 347 345 344 342 343 345 347 347 346 347 348 349 350 351 354 354 353 353 353 351 352 352 347 356 355 356 353 353 355 353 356 355 353
337 335 344 352 354 355 351 355 350 345 348 351 351 350 350 348 347 348 347 345 344 345 346 347 347 347 351 351 351 352 353 354 356 357 354 354 352 351 350 352 349 352 356 353 355 355 355 355 354
338 335 337 351 350 357 352 349 345 351 355 355 352 349 350 350 347 346 345 346 345 347 348 349 350 348 349 351 353 355 354 355 354 357 355 353 354 352 352 352 341 350 356 357 351 357 355 354 356
336 335 340 345 356 355 352 352 352 346 359 355 354 348 346 346 346 345 346 345 344 346 349 350 352 351 350 351 352 355 357 358 356 353 358 355 353 353 352 350 341 348 353 356 356 354 355 356 354
333 334 330 336 343 352 354 351 348 348 347 356 353 348 346 342 341 343 344 344 345 344 346 351 354 354 353 352 352 353 355 357 358 355 354 357 356 355 353 352 350 344 343 355 358 358 358 355 356
331 331 328 328 343 347 347 354 348 346 343 351 353 348 343 341 344 346 346 342 344 347 347 352 355 355 352 350 351 355 356 356 359 359 356 359 360 356 356 355 355 353 347 350 358 360 358 358 358
Wind_Speed
7 4 3 2 2 4 3 2 8 8 3 1 8 4 8 5 3 4 15 16 21 20 19 18 16 16 13 13 13 13 15 15 14 14 14 14 13 13 12 14 14 12 13 12 11 12 13 15 15
7 4 1 2 4 4 0 5 11 4 6 10 8 9 7 4 5 9 12 21 18 21 20 19 18 17 15 14 14 14 15 15 14 13 13 14 12 12 12 12 13 12 11 13 12 11 12 13 14
6 8 2 2 2 4 4 5 9 11 17 7 6 8 4 3 7 12 21 20 19 19 20 20 19 17 16 16 15 15 15 15 13 14 14 13 10 10 11 11 10 11 11 10 11 11 11 11 12
1 1 2 2 4 1 7 11 18 15 11 8 11 9 4 11 2 13 15 16 23 19 19 19 19 17 16 16 15 15 13 13 14 14 11 12 11 8 10 11 9 7 9 10 11 10 8 9 11
4 1 3 2 3 3 9 21 16 16 10 9 4 3 4 3 16 20 18 24 21 18 18 17 17 17 16 15 15 14 13 13 12 12 11 10 9 8 6 8 10 8 6 8 7 7 7 8 10
3 1 3 1 5 4 4 14 13 12 11 11 9 8 3 12 20 15 12 18 19 20 18 18 17 17 15 15 13 15 11 12 10 9 10 9 9 8 5 6 6 7 7 6 6 5 6 8 10
3 3 2 4 4 9 5 12 10 12 12 7 13 5 4 9 15 12 15 17 19 18 19 19 18 16 15 15 14 13 10 10 9 8 7 6 6 6 6 6 6 6 7 6 5 5 4 6 9
3 1 4 3 4 2 11 10 15 15 6 11 14 8 9 10 16 14 17 22 15 18 18 19 18 17 16 15 13 12 10 8 7 8 6 7 6 7 6 5 8 7 6 7 6 6 5 5 7
3 4 4 4 4 4 12 18 10 10 15 2 6 9 17 24 17 16 17 19 16 16 17 17 17 16 17 15 12 10 8 7 7 9 9 9 12 4 11 7 7 9 9 7 7 8 8 5 6
4 2 3 7 5 7 12 20 14 8 16 13 18 19 24 22 18 16 18 14 16 17 17 16 15 15 16 14 11 10 9 7 8 10 13 7 2 10 10 6 9 11 9 10 9 8 7 7 6
3 3 7 12 10 6 5 12 5 18 9 19 22 18 16 14 17 12 15 21 12 20 20 18 16 14 13 11 9 10 10 9 11 13 15 10 11 4 8 15 10 11 13 14 11 10 9 8 7
6 10 8 12 5 5 6 8 10 8 8 16 17 18 16 12 14 16 17 15 19 21 18 20 18 13 7 10 11 10 12 9 11 12 10 10 10 10 10 15 13 14 14 17 13 15 12 10 9
3 8 10 14 10 14 15 12 12 17 19 17 18 15 13 14 17 17 19 23 19 19 18 21 18 14 7 13 14 14 16 14 14 11 12 12 8 12 12 13 11 13 14 18 15 15 16 11 7
3 4 9 11 13 15 18 15 10 16 19 17 16 13 12 15 22 18 18 21 21 21 16 21 19 14 12 13 14 10 8 8 7 11 3 5 8 13 10 11 13 11 13 15 14 17 18 14 10
2 4 14 6 5 2 14 11 15 21 17 15 12 11 11 15 19 21 25 26 25 21 22 25 22 16 12 12 11 8 5 3 5 2 2 5 4 8 8 9 11 10 13 11 10 13 16 14 13
2 3 1 4 4 3 3 7 15 19 18 13 10 10 12 13 20 21 21 25 21 21 25 26 23 18 13 12 11 10 8 3 4 4 6 4 2 3 6 5 8 9 12 12 14 14 15 15 16
1 4 4 5 8 1 2 8 13 18 15 12 11 9 13 12 17 23 23 23 19 22 31 24 24 18 13 12 9 10 9 8 6 3 1 2 3 1 2 2 4 5 11 14 15 14 16 16 16
4 2 1 3 7 6 4 2 17 17 17 16 15 14 14 12 15 25 25 20 21 26 31 24 24 18 14 14 13 9 9 10 9 7 3 1 5 3 6 4 4 5 11 14 13 14 15 13 11
9 4 5 11 7 2 4 10 15 16 15 15 14 14 13 13 23 23 27 24 27 31 29 27 25 18 18 19 19 15 10 12 13 9 7 3 3 6 6 5 4 6 12 15 14 13 13 12 9
6 13 5 5 4 3 5 3 5 12 17 18 17 15 17 16 15 15 19 24 30 38 31 29 24 21 26 24 19 15 14 8 11 9 10 7 5 5 5 6 5 6 11 14 13 12 8 9 11
9 14 15 10 4 9 4 6 4 6 15 17 16 18 15 18 14 13 20 28 30 33 35 31 26 25 24 24 18 12 11 6 5 12 11 9 8 6 8 7 8 9 10 13 13 12 11 7 8
3 9 24 15 5 3 1 3 5 4 12 14 17 16 15 8 7 9 21 23 30 36 34 30 29 28 25 23 21 18 15 12 10 13 13 14 11 9 12 9 7 9 10 12 12 11 10 7 5
2 27 23 18 7 7 2 1 6 2 5 9 20 15 14 16 12 13 22 29 36 32 35 34 32 30 27 26 24 20 17 13 10 7 10 14 14 12 11 10 9 9 10 10 11 12 12 10 8
17 6 7 5 5 4 4 2 5 5 8 4 11 10 9 17 16 15 25 29 29 27 32 34 33 33 30 27 25 22 19 16 14 12 11 10 12 12 14 13 10 11 10 11 12 12 12 11 11
4 5 4 6 5 3 2 3 8 8 10 6 14 11 6 4 4 6 5 16 24 26 31 30 34 34 33 30 28 25 23 18 15 15 13 13 16 17 19 17 15 14 11 12 13 15 14 13 13
8 7 6 4 3 4 2 2 6 6 8 15 14 14 8 1 4 4 6 4 15 28 30 33 33 35 32 32 30 28 25 21 16 16 17 17 16 14 17 17 18 14 14 17 18 18 17 16 14
5 3 8 7 4 3 2 5 8 4 11 7 11 14 11 8 7 10 21 15 14 25 33 36 33 37 36 34 30 30 28 23 25 19 18 18 18 15 14 16 15 17 17 20 19 18 17 16 16
3 11 5 4 5 3 3 4 5 3 4 5 9 12 14 11 6 7 16 17 7 26 29 34 36 39 40 36 33 30 28 27 23 25 20 20 19 19 17 18 16 18 20 18 19 17 17 16 17
4 1 5 5 5 5 1 5 8 8 6 11 10 9 12 6 9 11 9 4 8 4 26 29 34 36 36 36 33 32 30 28 25 23 21 20 21 23 21 21 19 20 22 21 21 21 18 19 18
6 8 5 5 5 2 4 5 3 5 6 7 9 10 11 9 10 8 7 16 17 15 10 25 27 33 39 38 35 33 30 28 25 24 25 23 20 21 21 20 20 20 19 23 22 22 21 19 19
Wind_Direction
211 227 293 268 71 73 119 83 134 123 118 181 159 145 106 49 30 142 141 137 144 136 139 140 137 129 124 117 110 104 104 98 97 99 96 100 93 102 97 104 108 112 113 108 107 109 109 112 112
216 245 260 284 83 85 136 153 158 156 134 118 82 101 51 75 62 112 128 146 144 143 142 141 139 130 128 122 116 107 101 100 104 106 111 102 105 105 108 109 116 118 120 114 109 108 112 113 116
226 220 294 83 187 148 146 162 124 131 139 142 111 58 72 76 83 145 142 146 152 150 144 141 138 135 133 125 118 109 102 101 106 107 114 111 112 114 115 123 124 130 126 118 111 108 108 113 120
278 256 300 13 166 57 133 151 128 145 128 66 103 72 68 114 111 139 136 162 164 152 147 144 141 138 133 129 124 116 111 106 105 116 112 112 110 116 126 127 125 130 129 127 119 114 109 117 124
314 337 30 320 257 114 130 144 154 150 103 110 92 95 76 72 130 129 126 153 155 152 149 147 145 140 136 132 129 121 120 110 107 108 109 112 114 113 110 119 133 132 138 130 127 126 120 124 132
1 44 47 194 96 97 75 125 108 107 109 116 95 99 128 141 137 129 142 155 160 154 154 153 150 146 143 139 138 129 131 121 113 112 120 128 134 133 133 131 132 138 140 142 134 128 126 139 150
104 24 315 310 116 84 159 138 124 128 123 119 136 94 136 140 142 134 137 148 150 150 154 158 153 150 150 148 147 143 146 133 130 131 128 144 137 135 146 144 150 152 158 153 149 128 125 138 160
98 129 349 263 121 36 125 110 132 128 88 112 139 158 168 173 148 140 141 157 154 155 152 156 154 155 157 157 161 161 157 152 151 146 148 154 164 179 180 190 179 175 174 167 175 161 153 146 150
63 30 325 295 130 164 113 112 100 94 130 42 197 138 145 150 146 139 137 150 154 160 158 157 155 160 166 166 170 170 173 174 171 162 183 191 190 159 191 219 192 191 194 188 190 190 178 166 149
61 49 286 279 142 150 132 130 131 106 95 97 98 108 133 151 154 144 140 152 163 180 172 162 160 170 176 173 180 182 185 182 187 175 205 191 230 218 215 210 219 217 210 202 209 204 192 177 167
76 277 300 348 37 134 122 120 97 120 125 149 143 142 143 155 172 170 141 158 189 179 187 181 175 176 178 171 181 187 202 204 209 206 216 229 241 280 232 227 248 238 218 213 219 223 204 196 196
332 332 285 300 321 95 99 108 123 119 148 148 138 139 149 166 187 189 177 157 201 193 181 185 186 184 210 208 215 220 221 215 237 232 234 242 245 265 288 248 252 254 225 218 232 229 216 216 208
129 337 342 337 83 98 95 95 99 115 130 136 138 148 163 181 188 207 191 179 200 186 191 186 185 184 210 213 226 244 251 247 251 250 232 230 269 312 282 242 237 243 228 219 226 226 215 219 227
267 133 312 322 325 98 111 121 109 129 137 142 151 163 178 194 197 195 205 200 195 209 206 186 181 172 152 147 169 152 154 151 173 209 237 246 284 299 260 233 236 235 224 220 230 216 207 208 204
284 82 337 321 311 36 89 93 122 140 142 150 171 177 193 211 211 201 203 217 203 196 195 193 185 175 172 175 184 180 168 156 199 203 278 279 263 279 262 234 230 232 213 204 193 197 197 206 208
131 77 291 294 316 347 52 158 143 150 149 164 185 193 199 218 225 224 228 219 204 200 201 195 188 187 196 205 212 206 188 219 255 264 290 226 290 272 268 222 230 217 206 191 189 197 206 215 210
165 110 227 332 332 303 9 145 168 158 163 169 185 202 206 230 239 229 225 215 200 200 192 194 189 182 190 186 175 194 199 223 235 281 341 167 172 259 132 154 168 169 192 192 192 197 213 215 218
324 207 58 48 331 347 356 202 168 168 173 176 191 202 213 219 231 229 223 205 189 189 189 191 187 182 184 197 212 205 220 243 244 254 198 229 211 187 176 136 140 137 174 184 191 201 207 227 243
171 160 10 342 312 340 318 140 174 183 191 188 194 201 211 221 234 229 225 226 216 199 190 191 187 188 193 208 225 224 245 248 243 245 247 204 214 211 199 155 144 148 168 183 189 203 221 235 241
158 116 67 305 296 210 53 8 300 206 204 202 192 207 209 220 225 204 186 185 187 188 193 192 186 194 196 208 208 222 232 263 237 222 223 226 208 211 179 178 159 158 167 180 190 194 211 236 230
179 180 162 186 163 28 93 321 259 278 218 215 202 207 208 205 207 217 165 180 182 186 193 189 183 177 187 198 201 218 240 231 204 197 220 209 201 195 194 191 176 160 166 181 192 195 219 256 250
294 158 160 167 139 170 332 280 270 210 224 209 209 200 203 211 204 176 176 180 185 194 192 191 188 188 193 200 204 210 209 210 207 212 218 218 220 209 217 199 185 176 172 182 201 203 218 232 269
230 154 165 156 134 128 334 351 279 78 247 210 203 202 201 202 198 190 182 186 194 192 194 196 196 198 203 208 211 214 216 216 208 199 201 224 224 218 220 210 194 190 195 192 208 207 221 234 229
157 145 134 150 150 61 264 107 287 199 228 188 204 206 221 200 211 206 188 190 195 194 195 198 200 203 201 205 213 221 224 209 211 202 198 220 210 211 219 218 217 211 207 205 206 220 236 237 244
170 37 22 4 19 221 227 71 240 221 248 185 147 124 53 35 32 150 157 196 193 191 197 200 203 208 209 209 214 221 224 220 207 202 223 217 210 218 223 218 218 211 212 213 210 221 230 229 235
198 156 142 140 311 272 330 257 273 328 320 145 155 177 137 35 319 72 41 332 224 194 195 200 206 212 214 214 215 219 226 227 224 220 220 217 224 225 217 222 222 218 214 217 218 217 225 233 238
184 101 133 102 354 359 338 301 307 14 59 107 172 172 181 181 165 84 289 287 279 212 197 200 204 212 216 219 220 222 225 229 230 223 222 232 236 235 232 227 235 224 228 228 227 227 230 237 237
154 156 100 35 138 222 291 275 231 317 116 156 169 200 206 198 170 179 242 272 249 215 208 204 208 210 216 220 222 224 223 224 228 228 232 243 242 235 249 239 235 228 230 236 233 237 239 243 248
352 205 68 117 149 148 165 263 204 221 205 187 194 197 213 204 217 238 237 218 340 179 212 205 208 209 212 219 223 225 226 225 224 228 226 235 249 248 248 248 251 242 244 239 236 240 247 246 248
183 200 144 142 217 148 120 272 233 174 225 166 188 192 208 214 235 244 306 346 322 307 267 215 215 207 215 216 221 223 223 223 223 228 231 233 244 243 246 248 250 254 253 241 245 246 254 254 257